APRIZESAT 9

Last updated on July 6, 2021, 3:44 p.m. UTC

1 40018U 14033J   21187.10107752  .00000076  00000-0  20152-4 0  9993
2 40018  97.6984  11.8176 0070004 245.2124 114.1789 14.70057904377895
UTC
Height (km)
Latitude
Longitude
Inclination
Orbital Period
UTC large
Height (km)
Speed (km/s)
/
Latitude / Longitude
Inclination (degrees)
Orbital Period (minutes)
Azimuth
Elevation
Range (km)
Doppler Factor
iOS Compass Heading
iOS Angle